Location: Bonaustraße
(48.4603°N, 11.9280°E)
Time: 08:46:54
(UTC+01:00)

ISS - Visible Passes

Search period start: 21 January 2021 00:00
Search period end: 31 January 2021 00:00
Orbit: 418 x 419 km, 51.6° (Epoch: 21 January)

Date Brightness Start Highest point End Pass type
(mag) Time Alt. Az. Time Alt. Az. Time Alt. Az.
21 Jan -2.2 17:54:42 10° SSW 17:57:27 23° SE 17:59:24 15° E visible
21 Jan -1.8 19:30:35 10° WSW 19:32:21 29° WSW 19:32:21 29° WSW visible
22 Jan -3.8 18:42:52 10° WSW 18:46:13 74° SSE 18:46:41 60° E visible
23 Jan -3.3 17:55:14 10° SW 17:58:31 51° SSE 18:00:58 16° ENE visible
23 Jan -1.8 19:32:01 10° W 19:33:54 29° WNW 19:33:54 29° WNW visible
24 Jan -3.6 18:44:10 10° W 18:47:30 65° NNW 18:48:08 51° NE visible
25 Jan -3.8 17:56:20 10° WSW 17:59:43 83° NNW 18:02:20 16° ENE visible
25 Jan -1.7 19:33:27 10° WNW 19:35:17 27° WNW 19:35:17 27° WNW visible
26 Jan -3.3 18:45:34 10° W 18:48:52 48° N 18:49:27 42° NNE visible
27 Jan -3.4 17:57:40 10° W 18:00:59 54° N 18:03:37 15° ENE visible
27 Jan -1.8 19:34:46 10° WNW 19:36:33 27° NW 19:36:33 27° NW visible
28 Jan -3.3 18:46:55 10° WNW 18:50:11 47° N 18:50:43 43° NE visible
29 Jan -3.2 17:59:01 10° WNW 18:02:17 46° N 18:04:54 15° ENE visible
29 Jan -2.0 19:35:57 10° WNW 19:37:51 31° WNW 19:37:51 31° WNW visible
30 Jan -3.7 18:48:07 10° WNW 18:51:28 61° NNE 18:52:04 50° ENE visible
30 Jan -0.1 20:25:01 10° WNW 20:25:01 10° WNW 20:25:01 10° WNW visible
